Home   Weather   Hopedale   Past weeks
Flag for Canada

Past Weather in Hopedale, Newfoundland and Labrador, Canada — Yesterday and Last 2 Weeks

Now
45 °F

Cool.


Feels Like: N/A
Forecast: 45 / 43 °F
Wind: N/A

Location: Hopedale

Current Time: Jul 19, 2019 at 5:52:04 am

Latest Report: Jul 19, 2019 at 5:00 am


Visibility: N/A

Pressure: 29.72 "Hg

Humidity: 86%

Dew Point: 41 °F

Location of HopedaleLocation

Past Weather in Hopedale — Graph

°F

Hopedale Temperature Yesterday

Maximum temperature yesterday: 53 °F (at 12:00 am)
Minimum temperature yesterday: 40 °F (at 9:00 am)
Average temperature yesterday: 45 °F

High & Low Weather Summary for the Past Weeks

 TemperatureHumidityPressure
High69 °F (Jul 17, 2:00 pm)100% (Jul 4, 6:00 am)30.18 "Hg (Jul 4, 6:00 am)
Low35 °F (Jul 11, 7:00 am)53% (Jul 4, 3:00 pm)29.26 "Hg (Jul 7, 5:00 pm)
Average48 °F88%29.72 "Hg
* Reported Jul 4 4:00 am — Jul 19 4:00 am, Hopedale. Weather by CustomWeather, © 2019

Note: Actual official high and low records may vary slightly from our data, if they occured in-between our weather recording intervals... More about our weather records

Advertising

Hopedale Weather History for the Previous 24 Hours

Scroll right to see more
 ConditionsComfort  
Time TempWeatherWind HumidityBarometerVisibility
4:00 am
Fri, Jul 19
45 °FCool.N/A86%29.72 "HgN/A
3:00 am46 °FCool.N/A86%29.70 "HgN/A
2:00 am46 °FCool.N/A85%29.70 "HgN/A
1:00 am46 °FCool.N/A84%29.70 "HgN/A
12:00 am48 °FCool.N/A84%29.69 "HgN/A
11:00 pm
Thu, Jul 18
46 °FCool.N/A87%29.69 "HgN/A
10:00 pm45 °FCool.N/A89%29.69 "HgN/A
9:00 pm44 °FQuite cool.N/A91%29.69 "HgN/A
8:00 pm43 °FQuite cool.N/A94%29.68 "HgN/A
7:00 pm42 °FQuite cool.N/A96%29.66 "HgN/A
6:00 pm40 °FQuite cool.N/A100%29.65 "HgN/A
5:00 pm42 °FQuite cool.N/A96%29.63 "HgN/A
4:00 pm42 °FQuite cool.N/A88%29.61 "HgN/A
3:00 pm42 °FQuite cool.N/A92%29.57 "HgN/A
2:00 pm42 °FQuite cool.N/A93%29.54 "HgN/A
1:00 pm43 °FQuite cool.N/A93%29.52 "HgN/A
12:00 pm42 °FQuite cool.N/A94%29.51 "HgN/A
11:00 am43 °FQuite cool.N/A93%29.50 "HgN/A
10:00 am42 °FQuite cool.N/A95%29.49 "HgN/A
9:00 am40 °FQuite cool.N/A93%29.46 "HgN/A
8:00 am43 °FQuite cool.N/A90%29.44 "HgN/A
7:00 am48 °FCool.N/A85%29.41 "HgN/A
6:00 am49 °FCool.N/A84%29.39 "HgN/A
5:00 am49 °FCool.N/A76%29.38 "HgN/A
Weather by CustomWeather, © 2019

See weather overview